sat.trackr.live / text

‹ back to catalog

STARLINK-35349

NORAD 65835 · 2025-221N

PAYLOAD ACTIVE UNKNOWN

§ Identity

Operator
Country
US
Launch date
2025-09-29
Launch site
AFWTR
Launch vehicle
Mass (kg)
RCS (m²)

Purposes: comms

External: N2YO · Heavens-Above · Gunter

§ Orbital elements

Epoch: 2026-09-20T06:43:17.679936Z

Period
93.85 min
Inclination
53.1580°
Eccentricity
0.0002724
Mean motion
15.34405324 rev/d
Perigee alt
460.8 km
Apogee alt
464.6 km
Semi-major
6,840.8 km
B*
3.7664e-4
RAAN
262.5404°
Arg perigee
97.7312°
Mean anomaly
262.4000°
Rev number
5,455

§ Raw data

STARLINK-353491 65835U 25221N   26263.28006574  .00012372  00000+0  37664-3 0  99932 65835  53.1580 262.5404 0002724  97.7312 262.4000 15.34405324 54552

JSON: /api/v1/satellites/65835 · /tle

For live sub-satellite position, see the globe view (requires WebGL).

§ Visibility from observer

Set your observer location to see the next 7 days of passes ≥ 10°. The values pass through the URL so the page stays shareable.

No JS? Fill the form by hand. The geolocation button needs JavaScript.